Regional Weather Roundup
Issued by NWS

Home | Current Version | Previous Version | Graphics & Text | Print | Product List | Glossary On
Versions: 1 2 3 4 5 6 7 8 9 10 11 12 13 14 15 16 17 18 19 20 21 22 23 24 25 26 27 28 29 30 31 32 33 34 35 36 37 38 39 40 41 42 43 44 45 46 47 48 49 50
344
ASUS43 KBIS 280702
RWRND

NORTH DAKOTA REGIONAL WEATHER ROUNDUP
NATIONAL WEATHER SERVICE BISMARCK ND
200 AM CDT TUE MAR 28 2017

NOTE: "FAIR" INDICATES FEW OR NO CLOUDS BELOW 12,000 FEET WITH NO
SIGNIFICANT WEATHER AND/OR OBSTRUCTIONS TO VISIBILITY.


NDZ001>003-009>011-017-280800-
NORTHWEST NORTH DAKOTA

CITY           SKY/WX    TMP DP  RH WIND       PRES   REMARKS
WILLISTON      CLOUDY    39  36  89 E7        30.01S
MINOT          FOG       36  35  96 N9        30.07R VSB 1/4
$$

NDZ018>021-031>035-040>046-280800-
SOUTHWEST NORTH DAKOTA

CITY           SKY/WX    TMP DP  RH WIND       PRES   REMARKS
BISMARCK       FAIR      38  33  82 NE7       30.03R
DICKINSON      FAIR      34  29  82 SE9       29.96S
GARRISON         N/A     35  35 100 E7        30.03R
HETTINGER ARPT CLEAR     38  32  79 SE7       29.98F
$$

NDZ004>008-012>016-024-026-027-054-280800-
NORTHEAST NORTH DAKOTA

CITY           SKY/WX    TMP DP  RH WIND       PRES   REMARKS
GRAND FORKS    CLOUDY    35  35 100 NW10      30.11R
GRND FRKS AFB  LGT RAIN  35  35 100 NE13      30.09F
DEVILS LAKE    FAIR      34  32  92 E8        30.09R
$$

NDZ022-023-025-028>030-036>039-047>053-280800-
SOUTHEAST NORTH DAKOTA

CITY           SKY/WX    TMP DP  RH WIND       PRES   REMARKS
FARGO          FOG       37  37 100 N10       30.08R VSB 1/4
JAMESTOWN      FOG       34  34 100 E7        30.07R VSB 1/4
$$





USA.gov is the U.S. government's official web portal to all federal, state and local government web resources and services.